www.pogodaiklimat.ru

Погода и климат >> Архив погоды >> Франция >> Лаваль


ПОГОДА в Лавале

  • Прогноз погоды в Лавале
  • Монитор погоды в Лавале

АРХИВ ПОГОДЫ в Лавале

Время (UTC), дата Ветер
(напр.,м/с)
 
Видим.   Явления Облачность Т
(С)
Тd
(С)
f
(%)
Тe
(С)
Тes
(С)
Комфортность P
(гПа)
Po
(гПа)
Тmin
(С)
Tmax
(С)
R
(мм)
R24
(мм)
S
(см)
01 12.08 ЮЗ 1 20 км н/о +13.9 +12.6 92 +14 +14 1017.5 1005.5
02 12.08 Ю 1 19 км н/о +12.8 +12.0 95 +14 +14 1017.2 1005.2
03 12.08 Ю 1
{3}
12 км н/о +12.0 +11.5 97 +12 +12 1016.9 1004.9 0
04 12.08 Ю 2 8000 м н/о +11.9 +11.7 99 +11 +11 1016.6 1004.6
05 12.08 Ю 1 5000 м н/о +11.7 +11.7 100 +11 +11 1016.6 1004.6
06 12.08 Ю 1
{4}
7000 м н/о +12.7 +12.7 100 +13 +13 1016.8 1004.8 +11.1 +21.1 0
07 12.08 Ю 1 19 км н/о +14.6 +13.6 94 +15 +15 1017.1 1005.2
08 12.08 ЮЗ 2 20 км н/о +16.3 +13.4 83 +16 +16 1017.3 1005.5
09 12.08 ЮЗ 2
{7}
20 км 9/9 600 м
[]
+18.6 +12.3 67 +20 +21 1017.2 1005.4 0
10 12.08 З 3 20 км н/о +18.9 +11.9 64 +20 +20 1016.8 1005.1
11 12.08 ЮЗ 3 20 км 9/9 1140 м
[]
+20.6 +11.2 55 +23 +24 комфорт 1016.6 1004.9
12 12.08 СЗ 3
{11}
19 км 8/8 1500 м
[]
+17.4 +12.7 74 +17 +20 1016.8 1005.0 0.0 0
13 12.08 СЗ 4 19 км 10/4 900 м
[]
+17.9 +11.7 67 +18 +21 1017.8 1006.0
14 12.08 СЗ 3 20 км 10/10
[]
+18.7 +12.9 69 +20 +20 1017.6 1005.8 0.2
15 12.08 З 2
{9}
20 км 10/10 1000 м
[]
+17.9 +13.2 74 +18 +22 1018.1 1006.3 0.2 0
16 12.08 З 2 20 км 10/10 2000 м
[]
+18.2 +14.1 77 +19 +19 1018.3 1006.5 0.4
17 12.08 СЗ 3 20 км н/о +18.5 +11.3 63 +19 +19 1018.8 1007.0
18 12.08 СЗ 2
{9}
20 км 9/9 1000 м
[]
+18.2 +10.3 60 +19 +19 1019.4 1007.6 +12.7 +21.0 0.4 0
19 12.08 СЗ 2 20 км н/о +16.8 +9.0 60 +17 +17 1020.2 1008.3
20 12.08 СЗ 2 20 км н/о +15.2 +8.9 66 +15 +15 1021.4 1009.4
21 12.08 З 1
{4}
20 км н/о +13.6 +8.8 73 +14 +14 1022.1 1010.1 0
22 12.08 З 1 20 км н/о +12.7 +9.0 78 +13 +13 1022.4 1010.3
23 12.08 З 1 20 км н/о +12.0 +9.0 82 +13 +13 1022.4 1010.3
00 13.08 штиль 0
{2}
20 км н/о +11.1 +8.8 86 +10 +10 1022.3 1010.2 0
01 13.08 ЮЗ 1 20 км н/о +10.6 +8.9 89 +11 +11 1022.3 1010.1
02 13.08 штиль 0 20 км н/о +9.9 +8.5 91 +9 +9 1022.3 1010.1
03 13.08 З 1
{2}
20 км н/о +10.1 +8.9 92 +10 +10 1022.2 1010.0 0
04 13.08 Ю 1 19 км н/о +8.9 +8.1 95 +9 +9 1022.3 1010.1
05 13.08 Ю 1 16 км н/о +8.4 +8.0 97 +8 +8 1022.8 1010.5
06 13.08 Ю 1
{2}
20 км н/о +9.5 +8.7 95 +9 +9 1022.7 1010.5 +8.2 +18.2 0
07 13.08 ЮЗ 1 20 км н/о +12.6 +10.0 84 +13 +13 1022.9 1010.8
08 13.08 ЮЗ 2 20 км н/о +15.2 +10.6 74 +15 +15 1022.8 1010.8
09 13.08 З 3
{8}
20 км н/о +17.4 +9.6 60 +18 +18 1022.8 1010.9 0
10 13.08 З 3 20 км 8/3 1020 м
[]
+19.1 +10.4 57 +20 +25 1022.2 1010.4
11 13.08 З 2 20 км 10/3 1110 м
[]
+18.8 +10.1 57 +20 +25 1022.0 1010.2
12 13.08 ЮЗ 3
{9}
20 км 9/9 1000 м
[]
+19.4 +10.9 58 +21 +26 комфорт 1021.4 1009.6 0
13 13.08 З 3 20 км 9/8 1350 м
[]
+19.7 +10.7 56 +21 +23 комфорт 1021.2 1009.4
14 13.08 З 3 20 км 10/4 1200 м
[]
+19.7 +11.5 59 +21 +24 комфорт 1020.8 1009.0
15 13.08 ЮЗ 3
{9}
20 км 10/10 1000 м
[]
+20.0 +12.5 62 +22 +24 комфорт 1020.3 1008.6 0
16 13.08 З 2
{8}
20 км 10/5 1170 м
[]
+19.9 +12.6 63 +22 +22 комфорт 1020.1 1008.4
17 13.08 СЗ 2 20 км 10/4 1260 м
[]
+17.4 +13.7 79 +18 +19 1020.7 1008.9 0.0
18 13.08 З 1
{6}
20 км н/о +18.1 +13.6 75 +19 +19 1020.5 1008.7 +9.6 +21.2 0.0 0
19 13.08 З 1 20 км 10/10 1500 м
[]
+17.7 +13.4 76 +19 +19 1020.8 1009.0
20 13.08 З 2 20 км 10/1 1410 м
[]
+16.7 +13.6 82 +17 +17 1021.2 1009.3 0.0
21 13.08 ЮЗ 1
{5}
20 км 10/10 1000 м
[]
+15.8 +13.8 88 +16 +16 1021.4 1009.5 0.0 0
22 13.08 З 1 20 км 10/9 1410 м
[]
+15.4 +13.8 90 +17 +17 1021.2 1009.3
23 13.08 Ю 1 20 км 10/1 1110 м
[]
+14.6 +13.6 94 +16 +16 1021.0 1009.0
00 14.08 Ю 1
{2}
17 км н/о +13.9 +13.4 97 +15 +15 1020.9 1008.9 0
01 14.08 Ю 1 500 м туман н/о +13.2 +13.0 99 +14 +14 1020.7 1008.7
02 14.08 Ю 1 100 м туман ?/? +12.5 +12.5 100 +13 +13 1020.1 1008.1
03 14.08 Ю 1
{3}
100 м туман ?/? +12.1 +12.1 100 +13 +13 1019.8 1007.7 0
04 14.08 ЮЗ 1 600 м туман н/о +11.9 +11.9 100 +12 +12 1019.7 1007.6
05 14.08 ЮВ 1 400 м туман ?/? +11.5 +11.5 100 +12 +12 1019.7 1007.6
06 14.08 Ю 2
{4}
3900 м дымка ?/? +12.8 +12.8 100 +12 +12 1019.2 1007.2 +11.4 +18.1 0.0 0
07 14.08 Ю 2 13 км 9/9 2000 м
[]
+13.9 +13.9 100 +14 +14 1019.3 1007.3
08 14.08 Ю 2 19 км 10/1 240 м
[]
+17.2 +15.0 87 +18 +20 1018.7 1006.9
09 14.08 Ю 3
{10}
20 км 9/9 300 м
[]
+18.7 +14.2 75 +20 +20 1018.5 1006.7 0
10 14.08 Ю 3 20 км н/о +20.4 +13.6 65 +23 +23 комфорт 1018.0 1006.3
11 14.08 ЮЗ 3 20 км 10/6 1260 м
[]
+21.4 +12.3 56 +24 +26 комфорт 1017.4 1005.8
12 14.08 ЮЗ 3
{13}
20 км 10/10 1000 м
[]
+20.7 +12.7 60 +23 +25 комфорт 1017.2 1005.5 0
13 14.08 ЮЗ 3 20 км 10/10 960 м
[]
+19.8 +12.3 62 +22 +22 комфорт 1017.1 1005.4 0.0
14 14.08 Ю 4 20 км 10/10 1080 м
[]
+20.1 +13.1 64 +22 +22 комфорт 1016.5 1004.8
15 14.08 ЮЗ 4
{12}
20 км 10/10 600 м
[]
+20.1 +13.5 66 +22 +22 комфорт 1015.9 1004.2 0.0 0
16 14.08 ЮЗ 3 6000 м слаб. дождь 10/10 450 м
[]
+17.8 +16.1 90 +18 +18 1015.6 1003.8 0.2
17 14.08 Ю 3 7000 м дождь 10/10 210 м
[]
+16.7 +16.2 97 +17 +17 1015.2 1003.4 0.4
18 14.08 Ю 2
{9}
20 км 10/10 300 м
[]
+17.2 +16.2 94 +17 +17 1014.7 1002.9 +12.8 +21.8 0.8 0
19 14.08 ЮЗ 3 4300 м слаб. морось 10/10 240 м
[]
+17.1 +16.6 97 +17 +17 1014.7 1002.9 0.0
20 14.08 ЮЗ 2 20 км 10/10 180 м
[]
+17.3 +16.8 97 +18 +18 1014.7 1002.9 0.0
21 14.08 ЮЗ 2
{8}
20 км 10/10 100 м
[]
+17.5 +17.0 97 +18 +18 1014.9 1003.1 0.0 0
22 14.08 З 2 20 км 10/6 300 м
[]
+17.3 +16.5 95 +18 +18 1015.0 1003.2
23 14.08 ЮЗ 3 20 км 10/10 300 м
[]
+17.2 +16.4 95 +17 +17 1015.3 1003.5
00 15.08 З 3
{9}
20 км 10/10 300 м
[]
+16.9 +15.9 94 +17 +17 1015.5 1003.7 0
01 15.08 З 3 20 км 10/10 330 м
[]
+16.6 +15.5 93 +16 +16 1015.3 1003.5
02 15.08 З 3 20 км 10/10 300 м
[]
+16.2 +15.4 95 +16 +16 1015.3 1003.5
03 15.08 З 3
{9}
10 км 10/10 200 м
[]
+16.2 +15.2 94 +16 +16 1015.5 1003.7 0
04 15.08 З 2 20 км 9/9 1050 м
[]
+15.3 +14.5 95 +15 +15 1015.9 1004.0 0.2
05 15.08 З 4
{7}
20 км 8/8 400 м
[]
+15.2 +14.4 95 +14 +14 1016.5 1004.6
06 15.08 З 3
{8}
20 км 10/10 1000 м
[]
+15.6 +14.1 91 +15 +15 1017.1 1005.2 +15.1 +17.6 0.2 0
07 15.08 З 2 19 км н/о +16.5 +14.1 86 +17 +17 1017.7 1005.9
08 15.08 З 3 19 км 8/8 500 м
[]
+17.5 +14.2 81 +17 +18 1018.1 1006.3
09 15.08 З 3
{9}
20 км 10/10 600 м
[]
+18.7 +14.4 76 +20 +20 1018.7 1006.9 0
10 15.08 З 3 20 км 9/9 800 м
[]
+19.5 +13.7 69 +21 +22 комфорт 1018.9 1007.2
11 15.08 З 3 20 км 10/3 800 м
[]
+20.2 +13.4 65 +23 +27 комфорт 1019.2 1007.5
12 15.08 З 3
{10}
20 км 10/10 1000 м
[]
+19.9 +13.1 65 +22 +25 комфорт 1019.5 1007.8 0
13 15.08 З 3 20 км 10/1 1020 м
[]
+21.8 +13.2 58 +24 +30 комфорт 1019.5 1007.8
14 15.08 З 3 20 км 9/1 1110 м
[]
+21.8 +12.4 55 +24 +29 комфорт 1019.8 1008.1
15 15.08 СЗ 3
{9}
20 км 10/10 1500 м
[]
+21.9 +12.4 55 +24 +24 комфорт 1019.8 1008.1 0
16 15.08 З 3 20 км 9/1 1200 м
[]
+21.5 +12.3 56 +24 +26 комфорт 1019.8 1008.1
17 15.08 З 3 20 км н/о +21.1 +12.8 59 +23 +23 комфорт 1020.0 1008.3
18 15.08 СЗ 2
{7}
20 км н/о +20.7 +12.4 59 +24 +24 комфорт 1020.3 1008.6 +15.5 +22.6 0
19 15.08 СЗ 1 20 км н/о +19.3 +12.6 65 +22 +22 комфорт 1020.6 1008.8
20 15.08 С 1 20 км н/о +18.0 +13.5 75 +19 +19 1020.7 1008.9
21 15.08 штиль 0
{3}
20 км н/о +16.8 +13.5 81 +17 +17 1021.1 1009.2 0
22 15.08 штиль 0 20 км н/о +16.0 +13.1 83 +16 +16 1021.1 1009.2
23 15.08 штиль 0 20 км н/о +15.3 +13.5 89 +15 +15 1021.1 1009.2
00 16.08 штиль 0
{1}
20 км 8/8 1500 м
[]
+14.6 +13.1 91 +14 +14 1021.0 1009.0 0
01 16.08 Ю 1 20 км н/о +13.8 +13.2 96 +14 +14 1020.5 1008.5
02 16.08 Ю 1 13 км н/о +13.4 +13.2 99 +14 +14 1020.3 1008.3
03 16.08 Ю 1
{3}
8000 м н/о +12.3 +12.1 99 +12 +12 1019.7 1007.7 0
04 16.08 Ю 1 4400 м дымка н/о +12.1 +12.1 100 +12 +12 1019.6 1007.5
05 16.08 Ю 2 200 м туман ?/? +12.4 +12.4 100 +12 +12 1019.5 1007.5
06 16.08 Ю 2
{5}
200 м туман ?/? +12.6 +12.6 100 +12 +12 1019.0 1007.0 +12.1 +20.7 0
07 16.08 ЮЗ 1 1700 м дымка ?/? +13.9 +13.9 100 +14 +14 1019.3 1007.3 0.2
08 16.08 Ю 2 18 км 10/10 150 м
[]
+15.0 +14.7 98 +15 +15 1018.6 1006.7
09 16.08 ЮЗ 2
{6}
20 км 8/8 300 м
[]
+17.2 +14.1 82 +18 +19 1018.4 1006.6 0.2 0
10 16.08 Ю 3 20 км 8/8 700 м
[]
+19.2 +12.7 66 +21 +23 комфорт 1017.9 1006.2
11 16.08 Ю 3 20 км 10/10 960 м
[]
+20.3 +12.8 62 +23 +23 комфорт 1017.3 1005.6
12 16.08 Ю 3
{10}
20 км 9/9 1000 м
[]
+20.4 +13.4 64 +23 +24 комфорт 1016.3 1004.6 0
13 16.08 ЮЗ 3 20 км 10/10 1140 м
[]
+21.5 +13.1 59 +24 +24 комфорт 1015.7 1004.1
14 16.08 ЮЗ 3 20 км 10/10 1230 м
[]
+21.7 +13.3 59 +24 +24 комфорт 1015.2 1003.6
15 16.08 ЮЗ 3
{11}
20 км 9/9 1000 м
[]
+22.1 +13.4 58 +25 +26 комфорт 1014.6 1003.0 0
16 16.08 ЮЗ 4 20 км 9/9 1260 м
[]
+21.8 +13.9 61 +25 +25 комфорт 1014.0 1002.4
17 16.08 ЮЗ 4 20 км н/о +21.5 +13.1 59 +24 +24 комфорт 1013.6 1002.0
18 16.08 ЮЗ 3
{12}
20 км 9/9 1000 м
[]
+19.8 +13.5 67 +22 +22 комфорт 1013.8 1002.1 +12.7 +22.8 0
19 16.08 ЮЗ 2 20 км 10/10
[]
+19.1 +13.5 70 +21 +21 комфорт 1013.6 1001.9
20 16.08 Ю 2 20 км слаб. дождь 10/10
[]
+18.0 +14.3 79 +19 +19 1013.1 1001.4 0.0
21 16.08 Ю 2
{7}
20 км 10/10 1000 м
[]
+18.2 +14.5 79 +19 +19 1012.8 1001.1 0.0 0
22 16.08 ЮЗ 3 20 км 10/9 800 м
[]
+18.2 +14.9 81 +19 +19 1012.4 1000.7
23 16.08 ЮЗ 3 20 км 10/10 570 м
[]
+18.4 +15.1 81 +19 +19 1011.9 1000.2
00 17.08 Ю 3
{9}
20 км 10/10 300 м
[]
+18.4 +15.5 83 +19 +19 1011.4 999.7 0
01 17.08 ЮЗ 3 19 км 10/10 400 м
[]
+18.3 +16.1 87 +19 +19 1011.1 999.4
02 17.08 ЮЗ 3 14 км 10/10 270 м
[]
+18.0 +16.7 92 +18 +18 1010.8 999.1
03 17.08 Ю 3
{8}
3900 м слаб. дождь 10/10 100 м
[]
+17.5 +17.3 99 +18 +18 1010.4 998.7 0.2 0
04 17.08 Ю 3 3400 м дождь 10/10 120 м
[]
+17.7 +17.7 100 +18 +18 1010.1 998.4 0.4
05 17.08 Ю 3 3300 м слаб. дождь 10/10 150 м
[]
+18.0 +18.0 100 +18 +18 1009.8 998.1 0.8
06 17.08 Ю 3
{9}
4900 м слаб. дождь 10/10 100 м
[]
+18.1 +18.1 100 +19 +19 1009.7 998.0 +17.4 +19.8 3 0
07 17.08 Ю 3 4100 м слаб. дождь 10/10 120 м
[]
+18.3 +18.3 100 +19 +19 1009.9 998.2 3
08 17.08 Ю 3 3400 м дождь 10/10 120 м
[]
+18.6 +18.4 99 +20 +20 1009.7 998.1 2
09 17.08 Ю 3
{9}
2300 м слаб. дождь 10/10 100 м
[]
+18.9 +18.7 99 +21 +21 комфорт 1009.7 998.1 6 0
10 17.08 Ю 2 3300 м слаб. дождь 10/10 120 м
[]
+19.3 +19.3 100 +22 +22 комфорт 1009.6 998.0 0.4
11 17.08 ЮЗ 2 15 км дождь 10/10 180 м
[]
+19.6 +19.4 99 +23 +23 комфорт 1009.5 997.9 2
12 17.08 ЮЗ 2
{6}
13 км слаб. дождь 10/10 200 м
[]
+20.0 +19.7 98 +24 +25 комфорт 1009.5 997.9 4 0
13 17.08 ЮЗ 2 20 км 10/10 150 м
[]
+20.3 +19.6 96 +25 +25 комфорт 1009.5 997.9 0.0
14 17.08 СЗ 2 2300 м слаб. дождь 10/10 240 м
[]
+18.8 +18.1 96 +21 +21 комфорт 1009.7 998.1 1
15 17.08 З 2
{5}
10 км 10/10 200 м
[]
+19.3 +18.6 96 +22 +22 комфорт 1010.1 998.5 1 0
16 17.08 З 1 20 км 10/8 180 м
[]
+19.5 +18.8 96 +23 +24 комфорт 1009.9 998.3 0.4
17 17.08 З 1 20 км 10/10 300 м
[]
+19.7 +19.0 96 +24 +24 комфорт 1009.8 998.2 0.0
18 17.08 З 3
{8}
20 км дождь 9/9 300 м
[]
+19.2 +17.9 92 +21 +22 комфорт 1010.1 998.5 +18.1 +20.4 0.6 0
19 17.08 ЮЗ 3 18 км слаб. дождь 10/1 330 м
[]
+17.8 +16.7 93 +18 +18 1010.4 998.7 0.6
20 17.08 ЮЗ 2 20 км слаб. дождь 10/10 1500 м
[]
+16.0 +13.5 85 +16 +16 1010.7 998.9 0.4
21 17.08 Ю 2
{5}
14 км дождь 10/10 1000 м
[]
+14.9 +12.6 86 +15 +15 1009.8 998.0 1 0
22 17.08 ЮЗ 1 20 км слаб. дождь 10/8 960 м
[]
+14.3 +13.2 93 +15 +15 1009.6 997.8 0.4
23 17.08 ЮВ 1 20 км 10/6 900 м
[]
+14.5 +13.7 95 +15 +15 1008.7 996.9 0.2
00 18.08 ЮВ 1
{2}
6000 м дождь 10/10 300 м
[]
+14.5 +14.2 98 +15 +15 1008.1 996.3 2 0
01 18.08 ЮВ 2 6000 м слаб. дождь 10/10 210 м
[]
+15.1 +15.1 100 +15 +15 1006.4 994.6 2
02 18.08 Ю 3 6000 м слаб. дождь 10/10 90 м
[]
+16.8 +16.8 100 +17 +17 1005.5 993.8 0.8
03 18.08 Ю 4
{12}
3300 м слаб. дождь 10/10 100 м
[]
+18.9 +18.9 100 +20 +20 1004.2 992.6 4 0
04 18.08 ЮЗ 4 19 км 10/10 210 м
[]
+19.6 +19.1 97 +22 +22 комфорт 1003.7 992.2 0.6
05 18.08 ЮЗ 4 5000 м слаб. дождь 10/10 240 м
[]
+19.6 +19.1 97 +22 +22 комфорт 1004.0 992.5 0.5
06 18.08 ЮЗ 3
{12}
3800 м слаб. дождь 10/10 100 м
[]
+19.3 +19.3 100 +22 +22 комфорт 1004.6 993.1 +14.2 +19.6 10 0
07 18.08 СЗ 3 20 км 10/10 240 м
[]
+16.9 +16.1 95 +17 +17 1006.7 995.0 2
08 18.08 З 3 20 км 10/10 270 м
[]
+16.3 +15.5 95 +16 +16 1008.1 996.4
09 18.08 СЗ 3
{9}
20 км н/о +17.1 +14.9 87 +17 +17 1009.3 997.6 2 0
10 18.08 З 3 20 км н/о +18.0 +15.3 84 +18 +18 1009.9 998.2
11 18.08 З 3 20 км н/о +19.4 +14.4 73 +21 +21 комфорт 1010.6 999.0
12 18.08 ЮЗ 2
{8}
20 км 9/9 600 м
[]
+20.5 +14.2 67 +24 +25 комфорт 1011.0 999.4 0
13 18.08 З 3 20 км н/о +21.5 +12.3 56 +24 +24 комфорт 1011.2 999.6
14 18.08 З 2 20 км 8/6 1350 м
[]
+22.9 +12.8 53 +26 +29 жарко 1011.5 1000.0
15 18.08 З 3
{9}
20 км 8/8 1500 м
[]
+22.4 +11.2 49 +25 +26 комфорт 1011.6 1000.1 0
16 18.08 З 2 20 км н/о +22.4 +11.5 50 +25 +25 комфорт 1011.7 1000.2
17 18.08 З 3 20 км н/о +21.7 +10.8 50 +24 +24 комфорт 1012.0 1000.4
18 18.08 ЮЗ 2
{7}
20 км 10/10 1000 м
[]
+20.4 +12.9 62 +23 +23 комфорт 1012.4 1000.8 +16.1 +23.0 0
19 18.08 ЮЗ 3 20 км 9/9 1260 м
[]
+19.2 +12.7 66 +21 +21 комфорт 1013.0 1001.3
20 18.08 СЗ 1 20 км 9/9 1110 м
[]
+17.7 +13.2 75 +19 +19 1014.1 1002.3
21 18.08 З 1
{3}
20 км 9/9 600 м
[]
+16.3 +13.6 84 +18 +18 1015.0 1003.2 0
22 18.08 З 1 20 км 8/8 800 м
[]
+16.1 +13.0 82 +17 +17 1015.7 1003.9
23 18.08 З 1 20 км н/о +15.0 +13.0 88 +15 +15 1016.2 1004.3
00 19.08 З 2
{5}
20 км н/о +14.2 +12.2 88 +14 +14 1016.7 1004.8 0
01 19.08 З 2 20 км н/о +13.5 +11.9 90 +13 +13 1017.0 1005.0

 

Местоположение метеостанции Лаваль (Франция): широта 48.03 долгота -0.73 высота над уровнем моря 97 м.

В архиве по умолчанию представлена погода в Лавале за последнюю неделю. Архивные данные за месяц целиком и за предыдущие месяцы, начиная с января 2011 года, Вы можете получить, выбрав интересующий диапазон дат из раскрывающегося списка и нажав кнопку "Ввод!".


*Определитесь, кто Вы:
робот инопланетянин человек

Внимание! Время в таблицах - всемирное. Для получения местного времени необходимо прибавить поправку, которая равна 1 ч.

Смотрите также архив погоды в соседних городах и на ближайших метеорологических станциях:

Погода в Марсе (Франция) (61 км)
Погода в Бокузе (Франция) (62 км)
Погода в Ле-Мане (Франция) (70 км)
Погода в Ренне (Франция) (74 км)
Погода в Алансоне (Франция) (76 км)
Погода на Пуэнт-дю-Оке (Франция) (111 км)
Погода в Динаре (Франция) (116 км)
Погода в Нанте (Франция) (118 км)
Погода в Туре (Франция) (127 км)
Погода в Кане (Франция) (130 км)

Пояснения к столбцам:

Ветер - указаны скорость ветра в м/с - средняя за 10 мин, порывы в срок и между сроками (в фигурных скобках) и направление, откуда дует ветер: С - северный, СВ - северо-восточный, В - восточный, ЮВ - юго-восточный, Ю - южный, ЮЗ - юго-западный, З - западный, СЗ - северо-западный.
Видимость - горизонтальная дальность видимости в метрах или километрах. При видимости от 1 до 10 км при отсутствии осадков обычно наблюдается дымка, при ухудшении видимости до 1 км и менее - туман. В сухую погоду видимость может ухудшаться дымом, пылью или мглою.
Явления - указаны атмосферные явления, наблюдавшиеся в срок или в последний час перед сроком; фигурными скобками обозначены явления, наблюдавшиеся между сроками (за 1-3 часа до срока); квадратными скобками обозначены град или гололедные отложения с указанием их диаметра в мм.
Облачность - указаны через наклонную черту общая и нижняя облачность в баллах и высота нижней границы облаков в метрах; квадратными скобками обозначены формы облаков: Ci - перистые, Cs - перисто-слоистые, Cc - перисто-кучевые, Ac - высококучевые, As - высокослоистые, Sc - слоисто-кучевые, Ns - слоисто-дождевые, Cu - кучевые, Cb - кучево-дождевые. Подробнее классификацию облаков см. в Атласе облаков (PDF).
T - Температура воздуха - температура, измеренная на высоте 2 м над землей.
Td - Температура точки росы - температура, при понижении до которой содержащийся в воздухе водяной пар достигнет насыщения.
f - Относительная влажность воздуха - влажноcть воздуха, измеренная на высоте 2 м над землей.
Te - Эффективная температура - температура, которую ощущает одетый по сезону человек в тени. Характеристика душности погоды. При расчете учитывается влияние влажности воздуха и скорости ветра на теплоощущения человека.
Tes - Эффективная температура на солнце - температура, которую ощущает человек, с поправкой на солнечный нагрев. Характеристика знойности погоды. Зависит от высоты солнца над горизонтом, облачности и скорости ветра. Ночью, в пасмурную погоду, а также при ветре 12 м/с и более поправка равна нулю.
P - Атмосферное давление - приведенное к уровню моря атмосферное давление.
Po - Атмосферное давление - измеренное на уровне метеостанции атмосферное давление.
Tmin - Минимальная температура - минимум температуры воздуха на высоте 2 м над землей.
Tmax - Максимальная температура - максимум температуры воздуха на высоте 2 м над землей.
R - Количество осадков - Количество выпавших осадков за период времени, мм. При наведении курсора мыши на число - период времени, за который выпало указанное количество осадков.
R24 - Количество осадков - Количество выпавших осадков за 24 часа, мм.
S - Снежный покров - Высота снежного покрова, см. При наведении курсора мыши на число - состояние снежного покрова и степень покрытия местности в баллах.